Location: Arcusa
(42.3167°N, 0.0833°W)
Time: 20:43:44
(UTC+00:00)

USA 238 DEB - Pass Details

Date: 25 January 2020
Orbit: 1021 x 1191 km, 63.4° (Epoch: 10 February)

Event Time Altitude Azimuth Distance (km) Brightness Sun altitude
Exits shadow 04:52:02 61° 283° (WNW) 1,302 3.8 -27.4°
Maximum altitude 04:53:05 68° 239° (WSW) 1,240 3.7 -27.2°
Drops below altitude 10° 05:00:27 10° 158° (SSE) 3,098 6.4 -25.9°
Sets 05:03:13 0° 156° (SSE) 4,066 7.1 -25.4°
